Regional Weather Roundup
Issued by NWS Wakefield, VA

Home | Current Version | Previous Version | Text Only | Print | Product List | Glossary On
Versions: 1 2 3 4 5 6 7 8 9 10 11 12 13 14 15 16 17 18 19 20 21 22 23 24 25 26 27 28 29 30 31 32 33 34 35 36 37 38 39 40 41 42 43 44 45 46 47 48 49 50
171
ASUS41 KAKQ 242315
RWRAKQ

REGIONAL WEATHER ROUNDUP
NATIONAL WEATHER SERVICE WAKEFIELD VA
700 PM EDT SAT JUN 24 2017

Note: "fair" indicates few or no clouds below 12,000 feet with no
significant weather and/or obstructions to visibility. * = Denotes
station may not report precipitation (e.g., rain,snow,etc.),
thunder or fog.

VAZ042-051-052>054-056-250000-
NORTHERN VIRGINIA

CITY           SKY/WX    TMP DP  RH WIND       PRES   REMARKS
WASH NATIONAL  MOSUNNY   86  57  37 W9        29.90R
DULLES         MOSUNNY   83  58  42 SW3       29.90S
FORT BELVOIR   SUNNY     86  56  36 W6        29.90R
QUANTICO       SUNNY     87  57  35 N5        29.91R
FREDERICKSBRG* SUNNY     87  57  36 N7        29.89R
STAFFORD*      SUNNY     84  55  36 N7        29.95R
WARRENTON      SUNNY     86  52  31 CALM      29.91S
CULPEPER*      SUNNY     85  58  41 CALM      29.92R
MANASSAS*      SUNNY     84  60  44 VRB3      29.91R
LEESBURG*      MOSUNNY  N/A N/A N/A W5        29.91S
WINCHESTER     SUNNY     81  54  39 W8        29.92R
FRONT ROYAL*   CLEAR     82  54  36 W8        29.91S
LURAY*         MOCLDY    82  55  39 NW3       29.93R
$$

VAZ048-049-060>072-079>083-250000-
CENTRAL AND SOUTH CENTRAL VIRGINIA

CITY           SKY/WX    TMP DP  RH WIND       PRES   REMARKS
RICHMOND       PTSUNNY   85  70  60 SW9       29.90R
CHESTERFIELD*  NOT AVBL
PETERSBURG*    CLOUDY    80  71  73 CALM      29.92R
HANOVER        SUNNY     86  63  45 NW7       29.91R
TAPPAHANNOCK*  MOSUNNY   83  56  38 N3        29.91R
QUINTON*       FAIR      84  71  65 MISG      29.89R
CHARLOTTSVILLE MOSUNNY   86  60  41 CALM      29.91R
GORDONSVILLE*  PTCLDY    85  60  41 CALM      29.91R
ORANGE*        MOSUNNY   82  59  44 CALM      29.91R
LOUISA*        SUNNY     90  61  37 W5        29.91R
BUMPASS*       FAIR      84  69  59 W3        29.91R
FARMVILLE*     MOSUNNY   84  67  56 CALM      29.91S
CREWE*         FAIR      84  64  50 CALM      29.92S
FORT PICKETT*  FAIR      81  69  67 CALM      29.92S
CHASE CITY*    FAIR      78  77  99 CALM      29.92S
CLARKSVILLE*   CLOUDY    73  73 100 CALM      29.92S
SOUTH HILL*    CLOUDY    79  75  86 CALM      29.98R
LAWRENCEVILLE* FAIR      79  74  85 CALM      29.91F
EMPORIA*       CLOUDY    81  72  74 CALM      29.92S
$$

VAZ088>098-250000-
SOUTHEAST VIRGINIA

CITY           SKY/WX    TMP DP  RH WIND       PRES   REMARKS
NORFOLK        MOSUNNY   88  69  53 SW7       29.89R
VIRGINIA BEACH PTSUNNY   82  68  62 E5        29.89R
NORFOLK NAVAL  PTSUNNY   87  68  52 SW8       29.90S
WEST POINT*    CLOUDY    86  67  52 SW6       29.90S
SALUDA*        FAIR      85  72  64 CALM      29.88S
NEWPORT NEWS   PTSUNNY   86  69  56 NW7       29.89R
LANGLEY AFB    PTSUNNY   86  72  62 SW7       29.89R
FORT EUSTIS    PTSUNNY   88  72  60 NW5       29.87R HX  95
WILLIAMSBURG*  SUNNY     90  72  55 CALM      29.90S HX  96
HR EXEC AP*    FAIR      82  72  69 CALM      29.87R
FRANKLIN*      PTSUNNY   82  72  69 W3        29.91R
US460-WAKEFLD  PTSUNNY   85  72  65 CALM      29.90R
$$

VAZ020-022-025-037-045-250000-
WEST CENTRAL AND SOUTHWEST VIRGINIA

CITY           SKY/WX    TMP DP  RH WIND       PRES   REMARKS
STAUNTON*      MOSUNNY   82  55  40 NW7       29.96S
WAYNESBORO*    PTCLDY    79  64  59 SW3       29.96S
HOT SPRINGS VA PTSUNNY   70  43  37 W8G17     30.09S
LYNCHBURG      PTSUNNY   85  57  38 W6        29.94R
DANVILLE       PTSUNNY   77  75  93 MISG      29.92F
SOUTH BOSTON*  FAIR      78  77  96 CALM      29.92S
MARTINSVILLE   MOSUNNY   80  73  79 CALM      29.96R
ROANOKE        MOSUNNY   82  58  43 NW8       29.97R
BLACKSBURG     SUNNY     79  58  48 NW9       30.05R
DUBLIN*        SUNNY     80  45  29 NW12      30.03S
MARION*        SUNNY     78  55  45 W12       30.08R
HILLSVILLE*    SUNNY     78  59  51 W6        30.03S
RICHLANDS*     FAIR      73  58  60 NW6       30.08R
WISE*          MOSUNNY   73  55  53 CALM      30.10R
ABINGDON*      MOSUNNY   80  59  50 N6        30.04R
$$

MDZ021>025-VAZ099-100-250000-
SOUTHERN MARYLAND AND THE DELMARVA PENINSULA

CITY           SKY/WX    TMP DP  RH WIND       PRES   REMARKS
PATUXENT RIVER MOSUNNY   86  61  42 NW12      29.89R
BAY BRIDGE APT MOSUNNY   84  61  45 NW8       29.89R
LEONARDTOWN    NOT AVBL
DOVER          MOSUNNY   84  65  53 W10G17    29.87R
GEORGETOWN     MOSUNNY   87  61  41 NW6       29.89R
EASTON         MOSUNNY   86  59  39 NW7       29.93R
CAMBRIDGE      MOSUNNY   84  61  45 NW7G15    29.89R
SALISBURY      CLOUDY    85  66  53 W6        29.88R
OCEAN CITY     CLOUDY    86  66  51 W8        29.89R
WALLOPS ISLAND MOSUNNY   80  71  74 S7        29.90R
ACCOMACK*      MOSUNNY   85  70  60 CALM      29.89S
$$

NCZ012>017-030>032-250000-
NORTH CENTRAL AND EASTERN NORTH CAROLINA

CITY           SKY/WX    TMP DP  RH WIND       PRES   REMARKS
ROANOKE RAPIDS MOCLDY    81  77  89 CALM      29.90S
RALEIGH        LGT RAIN  73  72  96 S9        29.96R FOG
ELIZABETH CITY PTSUNNY   86  75  69 SW6       29.90R HX  95
AHOSKIE*         N/A     82  76  80 CALM      29.90S
EDENTON*       PTSUNNY   89  73  58 S10G17    29.91R HX  97
CURRITUCK*     PTSUNNY   89  69  51 W6        29.90R
KILL DEVIL HLS PTSUNNY   84  71  65 CALM      29.89R
MANTEO         HVY RAIN  81  74  78 SE5       29.92R
CAPE HATTERAS  MOSUNNY   81  75  82 SW10G21   29.94R HAZE
TARBORO*       NOT AVBL
GOLDSBORO      LGT RAIN  78  78 100 CALM      29.92R
WASHINGTON     LGT RAIN N/A N/A N/A S10G18    29.93R
GREENVILLE     LGT RAIN  81  77  89 SW10      29.94R
NEW BERN       TSTM      75  74  96 E6        29.96R
WILMINGTON     SUNNY     85  73  67 SW17G29   29.94S
$$

VAZ048-250000-
ELSEWHERE

CITY           SKY/WX    TMP DP  RH WIND       PRES   REMARKS
HARRISBURG PA  MOSUNNY   83  59  44 W8        29.85S
BALTIMORE      MOSUNNY   83  58  42 W15       29.88R
ANNAPOLIS      MOSUNNY   83  62  49 NW6       29.89R
ANDREWS AFB    SUNNY     84  55  36 W12       29.90R
PHILADELPHIA   PTSUNNY   85  56  37 W14       29.86R
HENDERSON NC   LGT RAIN  74  70  86 NW3       29.93R
GREENSBORO     CLOUDY    73  72  96 SW6       29.94S
ROCKY MOUNT    LGT RAIN  77  77 100 S7        29.92R
$$

VAZ100-250000-
MARINE

STATION/POSITION TIME  TEMP    WIND        PRES    WAVE   SWELL
                       AIR SEA DIR/SP/G            HT/PER HT/PER
                 (UTC) (F)     (DEG/KT/KT) (MB)    (FT/S) (FT/S)
BRANDYWINE LGT   2248          290/ 14/ 15 1012.1R
CAPE MAY NJ      2242   81 74  280/ 12/ 14 1011.5R
LEWES DE         2248   83 71  300/ 11/ 15 1011.8R
15NM E FENWICK I 2250   71 68  200/  8/  8 1012.5R   4/ 7   5/ 7
WACHAPREAGUE VA  2248   86 85  250/  2/  4 1012.1R
THOMAS POINT MD  2300   84 78  290/  9/ 11   N/A
GOOSES REEF MD   2300   84 80  320/  6/  8 1013.1    1
COVE POINT MD    2248   82     330/  5/  6 1012.9R
SOLOMONS ISLAND  2248   85 77  310/  5/  7   N/A
BISHOPS HEAD MD  2248   85 86  290/  3/  4 1012.4R
PINEY POINT MD   2236          350/  9/  9   N/A
POTOMAC MD       2300   84 78  160/  4/  6 1011.2    1
CAMBRIDGE MD     2248   87 82              1013.0R
LEWISETTA VA     2248   85 80   30/  2/  4 1012.1R
RAPPAHANNOCK LGT 2236          170/  5/  6 1012.7R
STINGRAY PT      2250   82     150/  4/  6 1012.8F
YORK RVR RNG VA  2248   85     300/  6/  7 1012.3S
YORKTOWN VA      2248   85 79  290/  4/  5 1011.7R
JAMESTOWN VA     2300   85 83  290/  8/  8   N/A     0
DOMINION TERM VA 2236   86     270/  5/  6 1012.0S
KIPTOPEKE VA     2236      80  160/  6/  6   N/A
CHES BAY BRIDGE  2236   82 76  140/  4/  9 1011.9S
CAPE HENRY VA    2236   82     130/  6/  9   N/A
WILLOUBY STN VA  2236   84     240/  7/  7 1011.9S
S CRANEY ISL VA  2236   87     260/  9/ 10 1011.7F
CAPE HENRY BUOY  2300      74                N/A     3/ 7
1ST LANDING BUOY 2300   79 76              1012.1    1/ 4
CAPE CHARLES BUO 2251      71                N/A     3/ 9
64NM E OF VA BCH 2250   76 74  180/  8/  8 1013.0F   5/ 7   5/ 7
DUCK PIER NC     2236      61  140/  8/  9 1011.8F
44100 DUCK FRF   2235      73                N/A     3/ 8
OREGON INLET NC  2236   83 85  210/ 17/ 20 1012.6R
HATTERAS NC      2236   80 79  220/ 10/ 16 1013.7R
DIAMOND SHLS NC  2250   81 80  230/ 19/ 23 1013.8R   6/ 7
CAPE LOOKOUT NC  2300   81     210/ 15/ 20 1013.8R
$$




USA.gov is the U.S. government's official web portal to all federal, state and local government web resources and services.